Theta_e
304 304 304 304 304 305 306 307 308 310 311 312 313 313 313 313 312 315 315 318 321 333 343 350 346 345 346 347 347 349 354 357 349 358 359 355 355 353 355 357 355 355 354 353 353
303 304 304 304 304 305 306 306 307 308 309 310 312 312 313 313 315 320 318 320 324 339 347 345 347 345 349 349 348 350 352 354 349 349 357 354 355 356 358 359 359 357 352 352 352
304 304 304 304 304 305 306 306 306 307 307 309 311 312 313 313 321 317 325 321 333 340 347 346 348 352 351 352 352 354 353 351 350 348 354 356 357 355 357 360 359 358 353 352 351
304 304 304 304 305 305 306 306 306 307 307 308 310 312 313 318 327 335 325 321 336 344 348 349 351 349 349 351 354 355 353 353 351 356 357 358 356 357 355 353 354 354 353 351 351
304 304 304 304 305 305 306 306 307 307 307 308 310 312 314 315 313 317 328 323 339 347 349 351 350 352 354 356 354 354 353 352 347 354 354 355 357 357 356 356 355 354 353 353 352
304 304 304 304 305 305 306 306 307 307 307 308 310 312 317 311 315 320 331 329 339 349 350 348 346 351 356 354 353 353 352 349 348 347 351 354 356 350 356 355 357 356 355 353 352
304 305 305 305 305 305 306 307 307 308 307 309 310 315 316 312 328 329 322 332 340 348 348 348 345 352 353 354 350 351 352 348 348 349 349 347 352 349 355 355 358 357 355 354 353
305 305 305 306 306 306 306 307 308 309 313 312 312 316 312 316 328 334 328 333 337 347 341 347 348 350 353 349 351 352 350 351 348 348 348 345 350 348 355 356 358 356 356 355 354
305 306 306 306 307 307 306 307 310 316 314 314 316 316 313 318 319 331 330 330 337 341 340 349 346 349 349 352 351 350 355 354 353 348 348 346 345 346 353 354 357 356 356 355 354
305 307 307 307 308 308 307 312 318 318 315 318 322 318 317 320 320 321 326 329 334 338 346 349 347 348 343 350 359 357 356 352 351 348 346 350 347 345 354 353 355 355 355 354 353
305 306 307 308 308 308 308 317 313 312 322 311 312 316 319 322 318 318 321 337 339 343 350 346 353 354 353 350 351 351 352 350 347 348 349 346 347 347 352 354 354 354 353 353 352
305 306 307 308 309 309 307 304 316 314 313 315 315 315 316 319 318 317 328 333 340 345 341 346 352 349 347 346 349 352 353 353 348 350 349 351 351 345 348 349 353 354 354 353 353
305 306 308 309 309 311 309 309 313 313 312 316 317 317 318 318 318 318 326 332 339 343 342 346 346 345 349 350 351 350 353 351 351 354 352 352 353 351 349 349 347 345 350 352 352
305 307 308 309 310 309 309 315 314 314 315 318 321 320 318 318 321 319 324 330 338 344 341 343 342 345 345 348 348 353 348 350 355 354 357 353 359 350 349 352 350 347 348 348 350
305 307 307 308 309 308 313 312 314 313 316 318 321 320 317 320 320 321 317 320 324 339 341 345 342 344 347 347 345 347 350 350 355 351 351 354 357 350 355 356 353 349 346 347 349
306 307 307 309 309 312 309 312 313 317 320 323 322 322 321 320 320 316 318 321 322 335 340 341 339 339 342 344 344 347 347 346 345 345 351 349 353 350 345 351 350 350 347 346 348
307 308 308 308 310 311 312 310 317 320 319 324 325 321 319 320 321 317 320 324 321 330 332 337 341 339 341 344 343 344 347 350 352 352 354 346 349 346 340 342 347 350 348 346 347
308 308 310 310 310 311 311 314 322 319 320 319 321 319 320 319 320 320 316 319 322 328 333 340 344 337 338 342 344 345 346 350 353 351 342 347 353 348 344 343 343 346 347 346 344
308 309 310 312 311 311 310 317 318 317 321 320 319 321 320 321 319 320 317 315 316 328 335 339 341 333 337 339 340 345 347 340 340 343 349 349 347 343 342 343 343 344 345 346 345
309 310 313 314 311 311 312 316 316 316 319 319 322 321 320 319 321 319 317 318 319 320 320 324 335 330 334 337 339 338 338 346 341 351 353 351 351 350 342 342 344 344 343 343 342
309 312 313 314 311 311 314 313 316 316 317 319 319 321 320 320 318 317 319 319 318 316 317 321 320 324 330 331 338 342 342 338 339 343 348 346 345 339 342 339 341 343 342 340 341
303 317 313 311 312 307 313 314 315 317 317 317 318 318 320 320 317 317 320 319 318 317 319 319 318 321 327 324 325 334 340 337 338 341 338 335 340 334 338 338 340 342 343 343 341
306 308 313 312 313 312 312 316 316 318 318 319 318 316 318 321 323 320 319 323 321 318 318 320 318 320 320 320 322 330 333 335 331 333 339 341 338 334 341 341 340 342 343 340 345
308 317 311 307 307 312 317 319 321 318 317 317 318 317 318 320 320 322 326 325 321 319 329 322 316 319 322 319 320 326 328 333 332 336 336 338 336 335 335 343 343 341 339 338 344
309 313 310 317 314 313 314 315 319 318 317 317 318 320 317 318 323 325 323 322 322 323 316 315 319 318 318 318 321 324 326 331 331 332 332 329 333 333 333 337 341 342 339 340 343
311 311 309 309 310 313 311 316 318 317 318 320 319 318 318 321 319 320 321 322 322 320 320 312 318 316 321 318 319 322 319 327 329 326 330 330 331 329 327 331 338 340 342 342 341
308 310 307 308 312 311 313 317 318 316 318 317 319 317 318 318 318 317 316 316 319 321 319 317 314 314 318 318 318 321 319 318 319 324 325 333 327 332 339 341 340 339 341 341 341
Wind_Speed
14 14 15 14 13 12 11 10 10 10 10 11 11 12 13 13 12 4 5 5 8 18 18 15 8 9 4 3 2 1 3 2 1 4 5 9 5 3 4 6 3 3 4 13 25
14 15 16 15 13 13 11 11 10 10 11 11 11 11 13 15 8 8 7 8 13 20 21 15 5 6 3 2 1 2 3 2 3 6 6 6 7 7 4 3 3 9 14 25 24
15 15 16 15 13 12 12 12 11 11 11 11 11 10 11 12 3 5 5 15 20 20 20 7 10 2 4 1 1 1 2 2 3 1 11 10 4 2 10 3 6 11 18 18 20
17 17 17 16 14 13 13 13 12 11 11 11 11 9 10 4 4 1 2 18 20 20 13 6 2 1 3 3 3 0 4 3 3 8 6 10 8 4 3 3 9 17 18 18 16
18 18 17 16 15 14 14 13 13 11 11 11 9 8 4 1 7 3 5 20 21 17 10 4 3 3 2 2 2 3 3 7 5 15 8 9 5 5 3 8 14 16 14 13 12
19 19 18 17 16 15 15 14 13 12 10 9 7 4 2 2 6 5 17 25 22 17 12 6 5 4 3 2 2 1 5 6 10 3 10 7 4 4 2 12 13 15 15 12 12
20 20 19 18 17 16 15 15 14 13 10 7 4 1 1 10 4 5 24 25 23 14 5 1 6 2 2 2 3 3 6 3 5 5 3 5 1 4 8 13 14 13 11 10 12
20 20 19 19 18 17 16 15 13 10 7 3 4 1 6 2 4 12 21 11 20 12 2 1 4 3 3 4 4 4 4 2 4 8 8 8 6 2 13 15 14 13 12 12 14
21 20 20 20 20 19 17 14 5 2 1 7 3 1 8 2 6 13 17 7 13 11 4 3 3 3 3 3 3 5 1 1 3 4 3 3 5 6 13 13 12 13 13 12 10
21 21 21 21 21 21 16 4 3 5 7 5 2 2 5 4 5 18 18 6 5 5 2 3 4 3 3 4 1 2 1 3 3 2 1 2 5 5 14 13 14 13 12 12 13
21 21 22 22 22 23 13 3 3 2 3 8 6 4 4 5 6 6 17 8 5 5 5 3 2 6 9 7 4 2 1 4 3 3 1 5 4 8 11 12 12 12 12 13 16
22 22 23 22 24 20 3 4 4 1 6 11 5 7 6 3 5 5 23 6 5 5 5 4 9 8 6 4 5 3 3 8 4 1 3 4 8 8 9 15 17 17 16 17 14
23 25 25 22 20 2 3 5 2 9 2 6 6 5 5 9 6 6 11 6 6 6 8 7 5 8 5 5 4 3 4 4 4 2 2 3 6 6 7 6 9 16 16 18 19
23 28 26 22 2 7 5 5 11 4 4 6 3 7 6 8 3 9 14 7 3 11 8 5 5 5 2 5 7 4 6 8 5 2 3 0 5 6 6 8 11 13 15 15 16
25 30 25 17 12 4 3 5 1 3 2 2 3 3 1 9 6 5 7 5 8 6 7 8 7 4 5 4 5 4 3 1 3 4 4 1 2 7 2 7 12 14 14 13 14
30 29 23 8 7 9 3 9 5 5 5 1 5 5 4 1 2 4 5 3 5 4 1 7 2 5 5 2 3 8 5 7 5 3 3 2 3 8 4 6 6 7 12 15 14
35 27 16 8 4 6 6 3 4 3 4 2 4 5 5 5 3 4 8 8 7 6 6 2 3 2 4 4 5 6 6 3 4 4 6 3 1 10 8 7 7 9 14 14 13
34 20 11 18 7 17 3 4 3 3 5 4 2 3 6 6 5 3 7 6 1 6 4 6 7 8 4 6 6 3 5 5 5 3 5 1 6 7 7 5 7 7 13 12 10
26 7 6 7 19 9 4 3 7 6 2 5 3 5 2 3 6 3 7 11 9 8 9 6 6 2 4 5 11 4 4 3 6 3 2 4 8 10 7 5 8 9 8 10 12
16 6 4 3 23 5 4 5 4 3 4 2 2 2 7 8 4 7 7 5 6 10 4 7 1 4 5 5 4 7 7 2 2 3 4 4 6 6 7 9 9 8 10 9 7
4 2 9 8 18 4 4 6 5 7 4 3 2 3 2 6 7 7 8 4 8 7 5 5 4 5 4 5 8 3 2 4 4 4 5 1 6 7 9 9 9 11 10 8 11
5 2 4 13 3 1 4 5 4 3 1 4 2 5 3 4 5 6 10 7 9 11 11 9 6 5 9 2 2 6 7 6 5 5 2 3 8 5 8 10 8 9 7 5 8
2 2 4 5 3 1 3 2 2 2 4 2 3 6 4 1 2 5 6 1 2 8 11 9 3 2 7 7 5 3 6 4 5 4 6 5 8 2 4 7 6 6 7 6 6
1 2 3 3 0 6 4 3 3 3 5 5 3 1 1 2 3 4 0 1 5 1 4 7 4 8 12 9 6 6 7 7 7 4 4 7 13 17 9 8 7 9 8 8 8
2 1 1 3 2 2 2 1 1 3 2 2 1 1 4 4 2 2 0 4 2 8 3 5 8 7 9 8 8 6 7 10 8 11 7 15 9 16 13 11 15 14 8 8 9
2 2 4 0 2 4 2 2 2 3 1 1 4 3 3 4 4 6 2 1 1 5 3 4 1 4 6 6 9 6 6 9 6 3 8 6 10 9 11 7 8 10 6 8 9
4 1 3 3 2 3 3 3 4 1 2 3 3 3 6 3 2 2 3 1 1 1 2 2 4 3 6 3 7 2 9 9 6 5 7 6 11 4 4 8 11 8 9 9 7
Wind_Direction
2 4 3 2 358 355 351 346 342 335 329 326 328 334 328 326 326 290 238 225 176 155 157 141 147 145 101 80 35 86 69 83 95 150 165 154 133 150 89 120 69 1 132 135 147
3 2 2 1 357 351 345 341 337 332 326 321 324 330 328 328 326 232 232 187 171 163 152 156 155 142 69 80 19 81 81 34 309 170 175 156 135 143 131 130 59 81 98 127 144
2 357 356 356 355 349 341 339 334 332 326 323 322 327 329 329 326 244 206 177 169 166 152 149 128 128 79 28 342 186 136 45 9 77 142 137 126 99 131 225 190 166 147 148 154
359 356 354 355 356 349 342 336 333 329 325 321 320 324 327 329 175 222 124 178 170 158 145 128 114 81 106 150 206 285 245 230 253 145 137 156 122 103 166 266 151 155 153 157 169
358 356 354 355 350 345 341 333 327 323 321 316 315 323 337 356 253 295 220 179 171 164 148 173 131 164 125 168 176 62 308 320 306 152 158 140 149 156 240 108 127 143 158 166 174
357 357 356 351 347 343 337 330 322 315 311 305 303 314 18 252 300 319 170 175 178 179 169 190 176 200 85 52 48 233 270 299 64 85 154 150 170 139 115 135 141 159 173 177 184
356 355 354 350 347 340 336 326 316 307 300 287 269 279 79 239 352 182 171 180 183 180 140 165 160 135 157 1 324 323 10 17 46 107 107 84 346 242 157 155 159 177 183 190 196
352 352 349 346 343 338 336 323 311 302 290 245 177 152 247 287 164 177 175 188 190 191 298 8 87 88 39 303 357 37 51 56 315 139 188 132 255 206 162 162 180 185 191 197 206
349 347 345 344 339 334 340 325 309 314 23 127 115 115 267 289 197 179 188 147 185 214 312 144 61 80 2 73 8 358 118 194 311 349 81 142 242 196 174 185 189 196 198 206 206
346 341 340 340 338 332 346 8 112 88 109 101 67 25 265 220 179 183 189 195 130 104 28 48 56 24 25 73 234 230 211 242 230 279 328 200 248 197 186 192 196 200 205 206 212
345 341 337 335 334 326 336 136 28 348 237 193 196 238 295 323 141 164 169 165 106 98 152 183 120 208 228 193 215 79 293 280 222 224 175 230 230 198 197 209 206 206 205 213 216
344 340 335 333 328 324 277 174 170 85 299 230 217 282 270 23 7 105 153 139 130 163 136 67 234 216 235 214 228 207 258 273 280 184 169 11 275 241 197 217 217 209 210 212 213
344 341 333 332 330 28 274 215 221 342 177 288 182 193 215 151 217 236 151 151 139 143 186 166 238 181 190 234 237 236 216 259 241 97 86 353 284 221 234 216 214 226 220 213 205
342 341 333 333 331 326 265 153 326 215 49 269 232 260 152 142 232 208 175 140 143 183 155 218 227 248 203 261 150 267 214 245 257 89 249 43 282 269 221 231 222 217 212 212 211
340 337 328 328 297 246 181 296 56 126 346 197 185 152 276 159 156 233 181 52 162 164 126 225 167 163 200 240 154 242 18 183 113 85 357 350 56 266 42 271 239 221 212 204 198
336 328 324 309 248 241 243 315 137 46 251 60 132 145 135 285 192 117 124 75 158 123 99 210 217 155 146 132 165 166 77 47 28 48 349 347 147 282 228 224 268 209 207 205 198
332 322 296 237 228 177 4 109 54 154 315 158 158 154 162 175 186 122 150 168 157 144 208 312 213 137 130 91 38 74 63 342 341 12 228 344 339 246 265 246 237 224 201 203 195
329 315 276 240 214 239 311 62 183 232 250 307 59 84 165 156 213 122 118 151 169 116 142 169 255 163 172 161 179 191 150 164 208 219 271 144 243 251 219 256 231 218 219 212 192
331 312 257 255 200 163 93 114 208 210 286 332 342 126 199 185 158 148 162 186 178 167 173 144 246 215 196 159 144 195 189 179 105 16 28 250 290 294 265 278 230 220 189 203 204
326 319 260 277 171 154 88 220 230 223 321 29 54 168 173 181 138 146 178 194 191 187 168 202 185 216 210 106 57 170 155 84 15 186 269 274 279 238 282 255 230 229 215 210 198
336 34 352 155 148 58 172 220 246 244 226 30 325 306 208 168 166 172 192 248 194 189 134 128 119 277 76 190 168 154 199 63 125 138 190 295 268 221 242 248 231 231 228 190 201
343 67 14 135 74 20 156 198 222 271 345 284 202 226 229 175 150 176 189 219 173 147 164 200 145 184 205 181 263 169 178 152 141 235 213 150 271 231 244 258 205 249 241 229 216
37 273 133 331 138 265 271 267 250 275 243 244 259 199 208 242 99 173 178 341 125 161 170 173 196 88 341 357 359 197 201 151 109 85 203 147 264 248 304 275 231 226 237 230 173
52 83 348 50 284 144 156 219 241 237 248 201 268 81 221 241 44 197 203 358 1 210 214 123 139 168 217 204 161 183 205 177 142 139 187 221 264 283 268 256 234 234 230 222 196
33 265 272 202 272 126 78 88 203 313 247 38 359 316 200 156 81 192 284 342 16 335 71 114 193 173 227 185 170 209 186 167 180 219 171 253 203 259 274 230 237 225 215 202 185
42 33 358 95 320 141 91 169 167 301 264 328 111 347 143 134 171 193 137 131 162 333 51 1 275 177 272 148 195 206 211 180 214 158 256 273 285 262 271 254 253 225 198 208 202
353 355 113 324 11 110 188 187 181 185 236 61 201 88 62 39 255 231 214 216 184 125 18 80 123 99 254 171 132 289 218 200 206 193 176 178 231 176 263 249 246 237 200 222 202